Location: Hopkins Observatory
(42.6965°N, 73.1843°W)
Time: 00:20:18
(UTC-05:00)

UOSAT-12 - Visible Passes

Search period start: 28 February 2015 00:00
Search period end: 10 March 2015 01:00
Orbit: 595 x 661 km, 64.6° (Epoch: 27 February)

Date Brightness Start Highest point End Pass type
(mag) Time Alt. Az. Time Alt. Az. Time Alt. Az.
28 Feb 8.6 03:40:10 35° NE 03:40:10 35° NE 03:43:04 10° NE visible
28 Feb 8.6 05:17:30 19° WNW 05:18:57 22° NW 05:22:37 10° N visible
01 Mar 8.1 04:00:09 41° NNE 04:00:09 41° NNE 04:03:20 10° NNE visible
01 Mar 9.2 05:37:29 10° WNW 05:39:44 13° NNW 05:41:59 10° N visible
02 Mar 10.2 02:42:44 12° NE 02:42:44 12° NE 02:43:09 10° NE visible
02 Mar 8.4 04:20:04 30° NNW 04:20:04 30° NNW 04:23:21 10° NNE visible
03 Mar 9.8 03:02:35 17° NE 03:02:35 17° NE 03:03:42 10° NE visible
03 Mar 8.8 04:39:54 19° NW 04:39:54 19° NW 04:43:04 10° N visible
04 Mar 9.4 03:22:21 20° NNE 03:22:21 20° NNE 03:23:55 10° NNE visible
04 Mar 9.3 04:59:40 12° NW 05:00:29 12° NNW 05:02:13 10° N visible
05 Mar 9.3 03:42:05 19° N 03:42:05 19° N 03:43:50 10° NNE visible
06 Mar 9.4 04:01:46 15° NNW 04:01:46 15° NNW 04:03:28 10° N visible
07 Mar 10.1 02:44:06 12° NNE 02:44:06 12° NNE 02:44:27 10° NNE visible
07 Mar 9.6 04:21:24 11° NNW 04:21:24 11° NNW 04:22:12 10° NNW visible
08 Mar 9.9 04:03:43 13° N 04:03:43 13° N 04:04:19 10° NNE visible
09 Mar 9.8 04:23:18 12° N 04:23:18 12° N 04:23:49 10° N visible
